EUTELSAT 172B (42741 NORAD) Tracking and Keplerian Element Data

This shows tracking and keplerian element data for the satellite.

Feedback or suggestion? Click here.




ElementValue
Catalog42741
NameEUTELSAT 172B
Epoch Orbit595
Epoch Day322.36273794
Epoch Year2018
RAAN290.0923
Inclination0.0166
Eccentricity0.0004521
Argument of Perigee339.2971
Mean Anonmoly90.5926
Mean Motion1.00272421
Decay Rate3E-08
L11 42741U 17029B 18322.36273794 .00000003 00000-0 00000-0 0 9997
L22 42741 0.0166 290.0923 0004521 339.2971 90.5926 1.00272421 5953

Live tracking and technical data element details for EUTELSAT 172B (NORAD 42741). EUTELSAT 172B can be tracked NOW for your location showing map with azimuth and elevation plus other details from your city location.

Track the satellite on the map from your city or location and see movement details for azimuth, elevation, latitude, longitude, range, height, and movement on the map or in text.







IsCatalogInMostPopularTable: catalog: 42741, numindb: 165
Update: records affected: 1



GetName: 42741 EUTELSAT 172B

Hit Count: updated at: Mon, 19 Nov 2018 13:28:53 GMT